Regional Weather Roundup
Issued by NWS

Home | Current Version | Previous Version | Text Only | Print | Product List | Glossary Off
Versions: 1 2 3 4 5 6 7 8 9 10 11 12 13 14 15 16 17 18 19 20 21 22 23 24 25 26 27 28 29 30 31 32 33 34 35 36 37 38 39 40 41 42 43 44 45 46 47 48 49 50

000
ASUS45 KPSR 290000
RWRAZ

PRELIMINARY ARIZONA REGIONAL HOURLY WEATHER ROUNDUP
NATIONAL WEATHER SERVICE PHOENIX AZ
500 PM MST SUN DEC 28 2014

NOTE: FAIR INDICATES FEW OR NO CLOUDS BELOW 12,000 FEET WITH NO
SIGNIFICANT WEATHER AND/OR OBSTRUCTIONS TO VISIBILITY.

AZZ001>003-036-290100-
NORTHWEST ARIZONA

CITY           SKY/WX    TMP DP  RH WIND       PRES   REMARKS
BULLHEAD CITY  CLEAR     54  14  20 SW3       30.19S
KINGMAN        CLEAR     44  10  25 SW7       30.14S
6HR MIN TEMP:  39; 6HR MAX TEMP:  47;

$$

AZZ004>008-015-016-018-290100-
NORTH CENTRAL ARIZONA

CITY           SKY/WX    TMP DP  RH WIND       PRES   REMARKS
GRAND CANYON   CLEAR     35   6  29 SW7       30.09F WCI  29
6HR MIN TEMP:  30; 6HR MAX TEMP:  38;

PRESCOTT       CLEAR     43  10  26 NE5       30.12S
6HR MIN TEMP:  36; 6HR MAX TEMP:  45;

FLAGSTAFF      CLEAR     34   1  24 SW14      30.09R WCI  25
6HR MIN TEMP:  34; 6HR MAX TEMP:  40;

PAYSON         MOCLDY    37  12  35 CALM      30.14F
PAGE           CLEAR     38   9  30 CALM      30.05F
6HR MIN TEMP:  32; 6HR MAX TEMP:  41;

$$

AZZ009>014-017-290100-
NORTHEAST ARIZONA

CITY           SKY/WX    TMP DP  RH WIND       PRES   REMARKS
WINSLOW        CLEAR     43   7  22 CALM      30.08F
6HR MIN TEMP:  32; 6HR MAX TEMP:  45;

SAINT JOHNS    MOCLDY    40   9  28 CALM      30.06F
6HR MIN TEMP:  30; 6HR MAX TEMP:  42;

WINDOW ROCK    PTCLDY    30   9  41 W6        30.05S WCI  24
6HR MIN TEMP:  23; 6HR MAX TEMP:  35;

$$

AZZ023-290100-
GREATER PHOENIX AREA

CITY           SKY/WX    TMP DP  RH WIND       PRES   REMARKS
PHOENIX        CLOUDY    57  16  20 W3        30.13S
6HR MIN TEMP:  50; 6HR MAX TEMP:  60;

GLENDALE       MOCLDY    57  19  23 E3        30.16S
LUKE AFB       CLOUDY    56  20  24 SW7       30.14S
6HR MIN TEMP:  49; 6HR MAX TEMP:  57;

DEER VALLEY    CLOUDY    54  16  22 SW6       30.13F
6HR MIN TEMP:  50; 6HR MAX TEMP:  56;

SCOTTSDALE     CLOUDY    55  17  22 W3        30.15S
6HR MIN TEMP:  48; 6HR MAX TEMP:  57;

MESA-GATEWAY   PTCLDY    54  19  26 CALM      30.16S
CHANDLER       MOCLDY    55  19  24 CALM      30.15S
$$

AZZ027-028-290100-
SOUTHWEST MARICOPA COUNTY AND PINAL COUNTY

CITY           SKY/WX    TMP DP  RH WIND       PRES   REMARKS
CASA GRANDE    CLOUDY    54  21  28 CALM      30.14S
6HR MIN TEMP:  46; 6HR MAX TEMP:  55;

$$

AZZ503-504-507>509-290100-
SOUTHEAST ARIZONA

CITY           SKY/WX    TMP DP  RH WIND       PRES   REMARKS
TUCSON         CLOUDY    53  16  23 N8        30.14S
6HR MIN TEMP:  46; 6HR MAX TEMP:  57;

DAVIS-MONTHAN  CLOUDY    51  18  27 NW7       30.11S
6HR MIN TEMP:  48; 6HR MAX TEMP:  55;

RYAN FIELD       N/A     55  21  26 NW8       30.14
NOGALES        CLEAR     54  12  18 NW6       30.11R
6HR MIN TEMP:  46; 6HR MAX TEMP:  59;

SIERRA VISTA   PTCLDY    51  11  20 CALM      30.11S
6HR MIN TEMP:  44; 6HR MAX TEMP:  54;

DOUGLAS        PTCLDY    50  22  33 CALM      30.12S
6HR MIN TEMP:  42; 6HR MAX TEMP:  52;

SAFFORD        MOCLDY    48  17  29 W3        30.11F
6HR MIN TEMP:  40; 6HR MAX TEMP:  51;

$$

AZZ020-021-025-026-031-290100-
SOUTHWEST ARIZONA

CITY           SKY/WX    TMP DP  RH WIND       PRES   REMARKS
YUMA           NOT AVBL
$$

CAZ031-033-041-043-047-048-061-290100-
SOUTHERN CALIFORNIA

CITY           SKY/WX    TMP DP  RH WIND       PRES   REMARKS
DOWNTOWN L.A.  CLEAR     60  35  39 CALM      30.16S
6HR MIN TEMP:  53; 6HR MAX TEMP:  63;

L.A. AIRPORT   PTCLDY    57  40  52 W10       30.17S
6HR MIN TEMP:  52; 6HR MAX TEMP:  59;

SAN DIEGO      MOCLDY    60  38  43 W8        30.19S
6HR MIN TEMP:  53; 6HR MAX TEMP:  63;

BURBANK        CLEAR     59  25  27 S7        30.15S
6HR MIN TEMP:  48; 6HR MAX TEMP:  61;

ONTARIO        PTCLDY    59  20  22 SW5       30.15S
6HR MIN TEMP:  49; 6HR MAX TEMP:  60;

RIVERSIDE      CLEAR     60  20  21 CALM      30.15F
6HR MIN TEMP:  47; 6HR MAX TEMP:  61;

PALM SPRINGS   CLEAR     59  10  14 E3        30.18F
6HR MIN TEMP:  52; 6HR MAX TEMP:  60;

EL CENTRO NAS  CLEAR     59  12  15 CALM      30.17F
6HR MIN TEMP:  51; 6HR MAX TEMP:  61;

IMPERIAL       CLEAR     59  13  16 NW3       30.17F
6HR MIN TEMP:  49; 6HR MAX TEMP:  60;

BLYTHE         CLEAR     55  11  17 CALM      30.17F
6HR MIN TEMP:  45; 6HR MAX TEMP:  56;

NEEDLES        CLEAR     53   9  17 CALM      30.18F
6HR MIN TEMP:  46; 6HR MAX TEMP:  54;

$$

NVZ020-UTZ003-290100-
SOUTHERN NEVADA-UTAH

CITY           SKY/WX    TMP DP  RH WIND       PRES   REMARKS
LAS VEGAS      NOT AVBL
SALT LAKE CITY LGT SNOW  29  26  89 SE7       30.04F FOG     WCI  22
6HR MIN TEMP:  28; 6HR MAX TEMP:  33; 6HR PCP:  0.01;

$$

NMZ009-TXZ055-290100-
NEW MEXICO-WEST TEXAS

CITY           SKY/WX    TMP DP  RH WIND       PRES   REMARKS
ALBUQUERQUE    MOCLDY    33  13  43 SE8       30.07S WCI  26
6HR MIN TEMP:  29; 6HR MAX TEMP:  37;

EL PASO        PTCLDY    46  21  37 SW9       30.09F
6HR MIN TEMP:  41; 6HR MAX TEMP:  49;

$$


........................KEY........................
SKY/WX - SKY CONDITION/WEATHER
TMP    - TEMPERATURE IN FAHRENHEIT
DP     - DEW POINT IN FAHRENHEIT
RH     - RELATIVE HUMIDITY IN PERCENT
WIND   - DIRECTION AND SPEED IN MILES PER HOUR (MPH)
VRB    - VARIABLE WIND DIRECTION
PRES   - MEAN SEA LEVEL PRESSURE IN INCHES OF MERCURY
         F - FALLING PRESSURE   R - RISING PRESSURE
         S - STEADY PRESSURE
VSB    - VISIBILITY IN MILES
HX     - HEAT INDEX IN FAHRENHEIT
WCI    - WIND CHILL INDEX IN FAHRENHEIT
TC     - TEMPERATURE IN CELSIUS WHICH IS ALSO KNOWN AS
         TEMPERATURE IN CENTIGRADE
AFB    - AIR FORCE BASE
         LUKE AFB IS LUKE AIR FORCE BASE
         DAVIS-MONTHAN IS DAVIS-MONTHAN AIR FORCE BASE
NAS    - NAVAL AIR STATION
         EL CENTRO NAS IS EL CENTRO NAVAL AIR STATION
N/A    - NOT AVAILABLE


USA.gov is the U.S. government's official web portal to all federal, state and local government web resources and services.